Location: Cañada de la Miga
(34.7595°N, 106.2317°W)
Time: 23:34:02
(UTC+00:00)

Transit 2A - Visible Passes

Search period start: 06 December 2021 00:00
Search period end: 16 December 2021 00:00
Orbit: 591 x 967 km, 66.7° (Epoch: 06 December)

Date Brightness Start Highest point End Pass type
(mag) Time Alt. Az. Time Alt. Az. Time Alt. Az.
09 Dec 8.9 13:01:39 10° NNE 13:03:17 11° NE 13:04:53 10° NE visible
12 Dec 8.4 12:59:51 10° N 13:04:39 22° NE 13:09:16 10° E visible
13 Dec 8.7 12:26:18 10° N 12:30:05 16° NE 12:33:45 10° E visible
14 Dec 8.9 11:53:20 10° NNE 11:55:26 12° NE 11:57:29 10° ENE visible
14 Dec 6.8 13:33:42 10° NNW 13:39:59 64° ENE 13:45:48 10° SE visible
15 Dec 7.4 12:59:37 10° NNW 13:05:39 45° ENE 13:11:17 10° SE visible
